Regional Weather Roundup
Issued by NWS Upton, NY

Current Version | Previous Version | Graphics & Text | Print | Product List | Glossary Off
Versions: 1 2 3 4 5 6 7 8 9 10 11 12 13 14 15 16 17 18 19 20 21 22 23 24 25 26 27 28 29 30 31 32 33 34 35 36 37 38 39 40 41 42 43 44 45 46 47 48 49 50

223
ASUS41 KOKX 280709
RWROKX

REGIONAL WEATHER ROUNDUP
NATIONAL WEATHER SERVICE NEW YORK NY
300 AM EDT FRI JUL 28 2017

NOTE: "FAIR" INDICATES FEW OR NO CLOUDS BELOW 12,000 FEET WITH NO
SIGNIFICANT WEATHER AND/OR OBSTRUCTIONS TO VISIBILITY.

NYZ071-072-176-178-NJZ106-104-280800-
NEW YORK CITY METRO AREA

CITY           SKY/WX    TMP DP  RH WIND       PRES   REMARKS
Central Park   CLOUDY    73  70  90 CALM      29.88S
Bronx Bot Gard   N/A     70  66  88 N1        29.85F
LaGuardia APRT MOCLDY    74  70  87 S5        29.84F
Kennedy INTL   MOCLDY    73  72  94 SW3       29.86F
Breezy Point     N/A     72 N/A N/A S2          N/A
Newark/Liberty CLOUDY    73  69  87 CALM      29.85S
Teterboro      CLEAR     72  69  90 CALM      29.84F
$$

NYZ177-179-078>081-280800-
LONG ISLAND NEW YORK

CITY           SKY/WX    TMP DP  RH WIND       PRES   REMARKS
Jones Beach      N/A     72 N/A N/A MISG        N/A
Matinecock PT    N/A     70 N/A N/A E2          N/A
Farmingdale    PTCLDY    71  70  96 CALM      29.86F
MacArthur/ISP  PTCLDY    72  71  97 SW3       29.85F
Shirley        MOCLDY    74  72  93 CALM      29.86F
Mt Sinai Harb    N/A    N/A N/A N/A MISG        N/A
Westhampton    CLOUDY    71  69  93 S3        29.88F
East Hampton   CLOUDY    71  69  94 SW3       29.86S
Montauk          N/A     72  70  93 SW3       29.87
$$

NYZ052-065-067-280800-
HUDSON VALLEY

CITY           SKY/WX    TMP DP  RH WIND       PRES   REMARKS
White Plains   CLEAR     68  66  93 W3        29.86F
Larchmont Harb   N/A     70 N/A N/A N2          N/A
Croton O-T Hud   N/A     68 N/A N/A NE2         N/A
Newburgh       PTCLDY    66  66 100 CALM      29.88F FOG
Montgomery     FOG       63  62  97 CALM      29.86F VSB 1/2
Poughkeepsie   PTCLDY    64  62  93 CALM      29.85F
Albany         PTCLDY    62  61  96 CALM      29.87S
$$

NJZ001-105-106-008-010-013-015-019>022-104-280800-
NEW JERSEY

CITY           SKY/WX    TMP DP  RH WIND       PRES   REMARKS
Newark/Liberty CLOUDY    73  69  87 CALM      29.85S
Teterboro      CLEAR     72  69  90 CALM      29.84F
Caldwell       CLEAR     68  68 100 CALM      29.86F FOG
Somerville     CLOUDY    68  67  96 CALM      29.84F FOG
Linden         FAIR      71  67  88 CALM      29.86S
Perth Amboy      N/A     72 N/A N/A CALM        N/A
Sussex         FOG       66  66 100 CALM      29.87F VSB 1/4
Andover          N/A     64  62  93 CALM      29.87F
Trenton        PTCLDY    71  69  93 CALM      29.84F
Millville      CLEAR     69  69 100 CALM      29.83F
Atlantic City  FOG       70  69  97 CALM      29.83F VSB 3/4
Wrightstown    CLOUDY    70  68  94 CALM      29.83S
Toms River     PTCLDY    67  66  97 CALM      29.85F
Belmar         CLOUDY    72  70  93 CALM      29.86F
$$

PAZ047>061-062-071-280800-
EASTERN PENNSYLVANIA

CITY           SKY/WX    TMP DP  RH WIND       PRES   REMARKS
Philadelphia   PTCLDY    72  70  93 CALM      29.83F
Allentown      FOG       66  64  93 CALM      29.86F VSB 1
Scranton       PTCLDY    66  65  96 E5        29.89S
$$

CTZ002-004>006-009-010-012-RIZ004-006-007-MAZ004-011-015-280800-
SOUTHERN NEW ENGLAND
 IN CT

CITY           SKY/WX    TMP DP  RH WIND       PRES   REMARKS
Bradley INTL   FOG       65  65 100 CALM      29.86F VSB 1/4
Hartford       CLEAR     69  68  96 CALM      29.85F
Danbury        CLOUDY    69  68  96 CALM      29.88F FOG
Wtrbury/Oxford MOCLDY    68  63  83 CALM      29.88F
Bridgeport     PTCLDY    70  68  93 CALM      29.85F
Meriden        PTCLDY    65  65 100 CALM      29.86S FOG
New Haven      MOCLDY    67  66  97 CALM      29.85F FOG
Chester        CLOUDY    70  70 100 CALM      29.87S
Groton         CLOUDY    70  68  93 SW3       29.85F
Wilimantic     MOCLDY    63  63 100 CALM      29.86F

 IN RI

CITY           SKY/WX    TMP DP  RH WIND       PRES   REMARKS
Providence     CLOUDY    70  69  97 W6        29.86S
Block Island   CLOUDY    69  68  96 SW10      29.87F
Westerly       MOCLDY    71  69  93 SW3       29.87S
 IN MA

CITY           SKY/WX    TMP DP  RH WIND       PRES   REMARKS
Boston         PTCLDY    68  66  93 W9        29.83S
Worcester      MOCLDY    65  63  93 W12       29.87F
Westfield      FOG       66  66 100 S3        29.86F VSB 1/4
Provincetown   CLEAR     64  63  96 SW9       29.84F
Nantucket      CLOUDY    66  65  96 SW10      29.86F
$$

ANZ330-335-338-340-345-350-353-355-280800-
COASTAL MARINE OBSERVATIONS


STATION/POSITION TIME  SKY/WX   TEMP    WIND        PRES    VSBY  WAVE
                                AIR SEA DIR/SP/G                  HT/PER
                 (UTC)          (F)     (DEG/KT/KT) (MB)    (MI)  (FT/S)
NY HARB ENTRANCE 0550            73 73  200/  6/  8 1010.6          2/ 4
20 S FIRE ISLAND 0650            73 74  220/ 10/ 10 1010.4          3/ 5
GREAT SOUTH BAY  0630            74 75  250/  6/  8   N/A
23 SSW MONTAUK P 0550            72 70              1011.7          4/ 5
15 E BARNEGAT LI 0630               73                N/A           3/ 5
HUDSON CANYON    0550            72 72  180/  6/  8 1011.1          2/ 4
KINGS POINT      0636            72 72  180/  3/  4 1010.8
EXECUTION ROCKS  0645            72      CALM  /  2   N/A
CENTRAL LI SOUND 0615            71     220/  4/  6   N/A           1
EASTERN LI SOUND NOT AVBL
ROBBINS REEF     0636                   200/  3/  4 1011.5
$$


>>>>>>>>>>>>>>>>>>>>>>>>>>>> KEY <<<<<<<<<<<<<<<<<<<<<<<<<<<
>                                                          <
>     SKY/WX - Sky Condition/Present Weather               <
>     TMP    - Temperature in Fahrenheit                   <
>     DP     - Dew Point in Fahrenheit                     <
>     RH     - Relative Humidity in Percent                <
>     WIND   - Direction (from) and Speed in MPH           <
>     PRES   - Mean Sea Level Pressure (inches of Hg)      <
>     WCI    - Wind Chill Index                            <
>     VSB    - VISIBILITY IN MILES                         <
>     HX     - HEAT INDEX                                  <
>     TC     - TEMPERATURE IN CELSIUS                      <
>     VRB    - VARIABLE WIND DIRECTION                     <
>                                                          <
>>>>>>>>>>>>>>>>>>>>>>>>>>>> KEY <<<<<<<<<<<<<<<<<<<<<<<<<<<




USA.gov is the U.S. government's official web portal to all federal, state and local government web resources and services.